Location: Auckland
(36.8670°S, 174.7670°E)
Time: 22:19:12
(UTC+12:00)

A-11 Canister half - Pass Details

Date: 30 July 2019
Orbit: 1526 x 1683 km, 47.3° (Epoch: 21 August)

Event Time Altitude Azimuth Distance (km) Brightness Sun altitude
Rises 12:27:11 0° 238° (WSW) 4,762 11.3 34.5°
Reaches altitude 10° 12:30:13 10° 237° (WSW) 3,795 10.9 34.5°
Maximum altitude 12:39:57 89° 147° (SSE) 1,628 9.8 34.4°
Drops below altitude 10° 12:49:58 10° 55° (NE) 3,899 11.6 34.3°
Sets 12:53:08 0° 55° (NE) 4,897 12.0 34.2°
